Time,TemperatureF,DewpointF,PressureIn,WindDirection,WindDirectionDegrees,WindSpeedMPH,WindSpeedGustMPH,Humidity,HourlyPrecipIn,Conditions,Clouds,dailyrainin,SolarRadiationWatts/m^2,SoftwareType,DateUTC
2013-02-13 00:01:00,25.6,21.4,29.85,SSW,207,0.0,0.0,84,0.00,CLR,,0.00,0.0,WeatherDisplay:10.37,2013-02-13 06:01:00,
2013-02-13 00:06:00,25.6,21.4,29.85,SSW,207,0.0,0.0,84,0.00,CLR,,0.00,0.0,WeatherDisplay:10.37,2013-02-13 06:06:00,
2013-02-13 00:11:00,25.3,21.1,29.85,SSW,207,0.0,0.0,84,0.00,CLR,,0.00,0.0,WeatherDisplay:10.37,2013-02-13 06:11:00,
2013-02-13 00:16:00,25.0,20.8,29.86,SSW,207,0.0,0.0,84,0.00,CLR,,0.00,0.0,WeatherDisplay:10.37,2013-02-13 06:16:00,
2013-02-13 00:21:00,24.8,20.9,29.86,SSW,207,0.0,0.0,85,0.00,CLR,,0.00,0.0,WeatherDisplay:10.37,2013-02-13 06:21:00,
2013-02-13 00:26:00,25.3,21.7,29.86,SSW,205,0.0,0.0,86,0.00,CLR,,0.00,0.0,WeatherDisplay:10.37,2013-02-13 06:26:00,
2013-02-13 00:31:00,25.1,21.2,29.86,SSW,205,0.0,1.1,85,0.00,CLR,,0.00,0.0,WeatherDisplay:10.37,2013-02-13 06:31:00,
2013-02-13 00:37:00,24.8,20.9,29.86,SSW,205,0.0,0.0,85,0.00,CLR,,0.00,0.0,WeatherDisplay:10.37,2013-02-13 06:37:00,
2013-02-13 00:42:00,24.7,20.8,29.86,SSW,205,1.1,2.4,85,0.00,CLR,,0.00,0.0,WeatherDisplay:10.37,2013-02-13 06:42:00,
2013-02-13 00:47:00,24.7,21.1,29.85,SSW,205,0.0,0.0,86,0.00,CLR,,0.00,0.0,WeatherDisplay:10.37,2013-02-13 06:47:00,
2013-02-13 00:52:00,24.7,21.1,29.85,SSW,205,0.0,0.0,86,0.00,CLR,,0.00,0.0,WeatherDisplay:10.37,2013-02-13 06:52:00,
2013-02-13 00:57:00,24.7,21.1,29.85,SSW,205,0.1,1.1,86,0.00,CLR,,0.00,0.0,WeatherDisplay:10.37,2013-02-13 06:57:00,
2013-02-13 01:02:00,24.7,21.1,29.85,SSW,205,0.0,0.0,86,0.00,CLR,,0.00,0.0,WeatherDisplay:10.37,2013-02-13 07:02:00,
2013-02-13 01:07:00,24.5,21.2,29.85,SSW,205,0.0,0.0,87,0.00,CLR,,0.00,0.0,WeatherDisplay:10.37,2013-02-13 07:07:00,
2013-02-13 01:12:00,24.5,21.2,29.85,SSW,205,0.0,0.0,87,0.00,CLR,,0.00,0.0,WeatherDisplay:10.37,2013-02-13 07:12:00,
2013-02-13 01:17:00,24.4,21.1,29.84,SSW,205,1.1,2.4,87,0.00,CLR,,0.00,0.0,WeatherDisplay:10.37,2013-02-13 07:17:00,
2013-02-13 01:22:00,24.4,21.1,29.84,SSW,205,1.0,2.4,87,0.00,CLR,,0.00,0.0,WeatherDisplay:10.37,2013-02-13 07:22:00,
2013-02-13 01:27:00,24.5,21.2,29.84,SSW,205,2.9,3.6,87,0.00,CLR,,0.00,0.0,WeatherDisplay:10.37,2013-02-13 07:27:00,
2013-02-13 01:32:00,24.7,21.4,29.84,SSW,205,2.4,3.6,87,0.00,CLR,,0.00,0.0,WeatherDisplay:10.37,2013-02-13 07:32:00,
2013-02-13 01:37:00,24.8,21.5,29.84,SSW,204,3.4,4.8,87,0.00,CLR,,0.00,0.0,WeatherDisplay:10.37,2013-02-13 07:37:00,
2013-02-13 01:42:00,24.8,21.8,29.84,SSW,203,2.7,3.6,88,0.00,CLR,,0.00,0.0,WeatherDisplay:10.37,2013-02-13 07:42:00,
2013-02-13 01:47:00,24.8,21.5,29.84,SSW,202,1.1,3.6,87,0.00,CLR,,0.00,0.0,WeatherDisplay:10.37,2013-02-13 07:47:00,
2013-02-13 01:52:00,24.5,21.2,29.84,SSW,202,0.0,0.0,87,0.00,CLR,,0.00,0.0,WeatherDisplay:10.37,2013-02-13 07:52:00,
2013-02-13 01:57:00,24.5,21.2,29.84,SSW,200,3.9,4.8,87,0.00,CLR,,0.00,0.0,WeatherDisplay:10.37,2013-02-13 07:57:00,
2013-02-13 02:02:00,24.7,21.7,29.83,SSW,212,4.8,6.0,88,0.00,CLR,,0.00,0.0,WeatherDisplay:10.37,2013-02-13 08:02:00,
2013-02-13 02:07:00,24.8,21.8,29.83,SSW,211,4.6,4.8,88,0.00,CLR,,0.00,0.0,WeatherDisplay:10.37,2013-02-13 08:07:00,
2013-02-13 02:12:00,24.8,21.8,29.83,SSW,213,4.6,4.8,88,0.00,CLR,,0.00,0.0,WeatherDisplay:10.37,2013-02-13 08:12:00,
2013-02-13 02:17:00,24.8,21.8,29.83,SSW,207,5.1,6.0,88,0.00,CLR,,0.00,0.0,WeatherDisplay:10.37,2013-02-13 08:17:00,
2013-02-13 02:22:00,24.8,21.8,29.83,SSW,209,5.9,7.2,88,0.00,CLR,,0.00,0.0,WeatherDisplay:10.37,2013-02-13 08:22:00,
2013-02-13 02:27:00,24.7,21.7,29.83,SSW,202,4.3,4.8,88,0.00,CLR,,0.00,0.0,WeatherDisplay:10.37,2013-02-13 08:27:00,
2013-02-13 02:32:00,24.5,21.5,29.83,SSW,202,3.0,3.6,88,0.00,CLR,,0.00,0.0,WeatherDisplay:10.37,2013-02-13 08:32:00,
2013-02-13 02:37:00,24.4,21.4,29.83,SSW,202,2.9,4.6,88,0.00,CLR,,0.00,0.0,WeatherDisplay:10.37,2013-02-13 08:37:00,
2013-02-13 02:42:00,24.4,21.4,29.83,SSW,202,3.2,3.6,88,0.00,CLR,,0.00,0.0,WeatherDisplay:10.37,2013-02-13 08:42:00,
2013-02-13 02:47:00,24.4,21.4,29.83,SSW,202,3.2,3.6,88,0.00,CLR,,0.00,0.0,WeatherDisplay:10.37,2013-02-13 08:47:00,
2013-02-13 02:52:00,24.4,21.6,29.83,SSW,200,4.2,4.8,89,0.00,CLR,,0.00,0.0,WeatherDisplay:10.37,2013-02-13 08:52:00,
2013-02-13 02:57:00,24.4,21.6,29.83,SSW,200,0.0,2.3,89,0.00,CLR,,0.00,0.0,WeatherDisplay:10.37,2013-02-13 08:57:00,
2013-02-13 03:02:00,24.2,21.4,29.82,SSW,204,3.7,4.8,89,0.00,CLR,,0.00,0.0,WeatherDisplay:10.37,2013-02-13 09:02:00,
2013-02-13 03:07:00,24.2,21.4,29.82,SSW,211,3.3,3.6,89,0.00,CLR,,0.00,0.0,WeatherDisplay:10.37,2013-02-13 09:07:00,
2013-02-13 03:12:00,24.1,21.3,29.82,SSW,211,3.8,3.8,89,0.00,CLR,,0.00,0.0,WeatherDisplay:10.37,2013-02-13 09:12:00,
2013-02-13 03:17:00,24.1,21.3,29.82,SSW,211,2.8,3.6,89,0.00,CLR,,0.00,0.0,WeatherDisplay:10.37,2013-02-13 09:17:00,
2013-02-13 03:22:00,23.9,21.1,29.82,SSW,211,0.0,3.5,89,0.00,CLR,,0.00,0.0,WeatherDisplay:10.37,2013-02-13 09:22:00,
2013-02-13 03:27:00,23.8,21.0,29.82,SSW,211,0.0,0.0,89,0.00,CLR,,0.00,0.0,WeatherDisplay:10.37,2013-02-13 09:27:00,
2013-02-13 03:32:00,23.6,20.8,29.82,SSW,209,0.0,0.0,89,0.00,CLR,,0.00,0.0,WeatherDisplay:10.37,2013-02-13 09:32:00,
2013-02-13 03:37:00,23.5,20.7,29.82,SSW,209,0.0,0.0,89,0.00,CLR,,0.00,0.0,WeatherDisplay:10.37,2013-02-13 09:37:00,
2013-02-13 03:42:00,23.5,21.0,29.82,SSW,209,1.7,2.4,90,0.00,CLR,,0.00,0.0,WeatherDisplay:10.37,2013-02-13 09:42:00,
2013-02-13 03:47:00,23.5,21.0,29.81,SSW,209,0.0,0.0,90,0.00,CLR,,0.00,0.0,WeatherDisplay:10.37,2013-02-13 09:47:00,
2013-02-13 03:52:00,23.5,21.0,29.81,SSW,209,0.0,0.0,90,0.00,CLR,,0.00,0.0,WeatherDisplay:10.37,2013-02-13 09:52:00,
2013-02-13 03:57:00,23.3,20.8,29.81,SSW,209,0.0,0.0,90,0.00,CLR,,0.00,0.0,WeatherDisplay:10.37,2013-02-13 09:57:00,
2013-02-13 04:02:00,23.2,20.7,29.80,SSW,209,2.1,2.4,90,0.00,CLR,,0.00,0.0,WeatherDisplay:10.37,2013-02-13 10:02:00,
2013-02-13 04:07:00,23.0,20.5,29.80,SSW,209,2.7,2.7,90,0.00,CLR,,0.00,0.0,WeatherDisplay:10.37,2013-02-13 10:07:00,
2013-02-13 04:12:00,22.9,20.4,29.80,SSW,209,0.0,2.3,90,0.00,CLR,,0.00,0.0,WeatherDisplay:10.37,2013-02-13 10:12:00,
2013-02-13 04:17:00,22.9,20.7,29.80,SSW,209,0.0,0.0,91,0.00,CLR,,0.00,0.0,WeatherDisplay:10.37,2013-02-13 10:17:00,
2013-02-13 04:22:00,22.7,20.5,29.80,SSW,209,1.0,3.6,91,0.00,CLR,,0.00,0.0,WeatherDisplay:10.37,2013-02-13 10:22:00,
2013-02-13 04:27:00,22.7,20.5,29.80,SSW,209,2.2,3.6,91,0.00,CLR,,0.00,0.0,WeatherDisplay:10.37,2013-02-13 10:27:00,
2013-02-13 04:32:00,22.7,20.5,29.79,SSW,209,0.0,0.0,91,0.00,CLR,,0.00,0.0,WeatherDisplay:10.37,2013-02-13 10:32:00,
2013-02-13 04:37:00,22.7,20.5,29.79,SSW,209,4.6,6.0,91,0.00,CLR,,0.00,0.0,WeatherDisplay:10.37,2013-02-13 10:37:00,
2013-02-13 04:42:00,22.7,20.5,29.79,SSW,207,3.7,4.8,91,0.00,CLR,,0.00,0.0,WeatherDisplay:10.37,2013-02-13 10:42:00,
2013-02-13 04:47:00,22.4,20.2,29.79,SSW,207,0.0,1.1,91,0.00,CLR,,0.00,0.0,WeatherDisplay:10.37,2013-02-13 10:47:00,
2013-02-13 04:52:00,22.5,20.5,29.79,SSW,206,0.1,2.3,92,0.00,CLR,,0.00,0.0,WeatherDisplay:10.37,2013-02-13 10:52:00,
2013-02-13 04:57:00,22.5,20.5,29.79,SSW,205,3.0,4.8,92,0.00,CLR,,0.00,0.0,WeatherDisplay:10.37,2013-02-13 10:57:00,
2013-02-13 05:02:00,22.5,20.5,29.79,South,190,3.2,3.6,92,0.00,CLR,,0.00,0.0,WeatherDisplay:10.37,2013-02-13 11:02:00,
2013-02-13 05:07:00,22.4,20.4,29.79,South,190,0.0,0.0,92,0.00,CLR,,0.00,0.0,WeatherDisplay:10.37,2013-02-13 11:07:00,
2013-02-13 05:12:00,22.4,20.4,29.79,South,190,0.0,0.0,92,0.00,CLR,,0.00,0.0,WeatherDisplay:10.37,2013-02-13 11:12:00,
2013-02-13 05:17:00,22.4,20.4,29.79,South,190,0.0,0.0,92,0.00,CLR,,0.00,0.0,WeatherDisplay:10.37,2013-02-13 11:17:00,
2013-02-13 05:22:00,22.2,20.2,29.79,South,190,0.3,2.4,92,0.00,CLR,,0.00,0.0,WeatherDisplay:10.37,2013-02-13 11:22:00,
2013-02-13 05:27:00,22.1,20.1,29.79,South,190,0.0,0.0,92,0.00,CLR,,0.00,0.0,WeatherDisplay:10.37,2013-02-13 11:27:00,
2013-02-13 05:32:00,21.9,19.9,29.79,South,190,0.0,0.0,92,0.00,CLR,,0.00,0.0,WeatherDisplay:10.37,2013-02-13 11:32:00,
2013-02-13 05:37:00,21.8,19.8,29.79,South,190,0.0,0.0,92,0.00,CLR,,0.00,0.0,WeatherDisplay:10.37,2013-02-13 11:37:00,
2013-02-13 05:42:00,21.4,19.4,29.79,South,190,0.0,0.0,92,0.00,CLR,,0.00,0.0,WeatherDisplay:10.37,2013-02-13 11:42:00,
2013-02-13 05:47:00,21.3,19.3,29.79,South,190,0.0,0.0,92,0.00,CLR,,0.00,0.0,WeatherDisplay:10.37,2013-02-13 11:47:00,
2013-02-13 05:52:00,21.0,19.0,29.79,South,190,0.0,0.0,92,0.00,CLR,,0.00,0.0,WeatherDisplay:10.37,2013-02-13 11:52:00,
2013-02-13 05:57:00,20.3,18.1,29.79,South,190,0.0,0.0,91,0.00,CLR,,0.00,0.0,WeatherDisplay:10.37,2013-02-13 11:57:00,
2013-02-13 06:02:00,19.7,17.5,29.80,South,190,0.0,0.0,91,0.00,CLR,,0.00,0.0,WeatherDisplay:10.37,2013-02-13 12:02:00,
2013-02-13 06:07:00,19.2,17.3,29.80,South,190,0.0,0.0,92,0.00,CLR,,0.00,0.0,WeatherDisplay:10.37,2013-02-13 12:07:00,
2013-02-13 06:12:00,19.1,17.2,29.80,South,190,0.0,0.0,92,0.00,CLR,,0.00,0.0,WeatherDisplay:10.37,2013-02-13 12:12:00,
2013-02-13 06:17:00,18.8,16.9,29.79,South,190,0.0,0.0,92,0.00,CLR,,0.00,0.0,WeatherDisplay:10.37,2013-02-13 12:17:00,
2013-02-13 06:22:00,18.6,16.7,29.79,South,190,0.0,0.0,92,0.00,CLR,,0.00,0.0,WeatherDisplay:10.37,2013-02-13 12:22:00,
2013-02-13 06:27:00,18.4,16.5,29.79,South,190,0.0,0.0,92,0.00,CLR,,0.00,0.0,WeatherDisplay:10.37,2013-02-13 12:27:00,
2013-02-13 06:32:00,18.1,16.2,29.79,South,190,0.0,0.0,92,0.00,CLR,,0.00,0.0,WeatherDisplay:10.37,2013-02-13 12:32:00,
2013-02-13 06:37:00,18.0,15.8,29.79,South,190,0.0,0.0,91,0.00,CLR,,0.00,0.0,WeatherDisplay:10.37,2013-02-13 12:37:00,
2013-02-13 06:42:00,17.7,15.8,29.79,South,190,0.0,0.0,92,0.00,CLR,,0.00,0.0,WeatherDisplay:10.37,2013-02-13 12:42:00,
2013-02-13 06:47:00,17.7,15.8,29.79,South,190,0.0,0.0,92,0.00,CLR,,0.00,0.0,WeatherDisplay:10.37,2013-02-13 12:47:00,
2013-02-13 06:52:00,17.7,15.8,29.79,South,190,0.0,0.0,92,0.00,CLR,,0.00,0.0,WeatherDisplay:10.37,2013-02-13 12:52:00,
2013-02-13 06:57:00,17.7,15.8,29.79,South,190,0.0,0.0,92,0.00,CLR,,0.00,0.0,WeatherDisplay:10.37,2013-02-13 12:57:00,
2013-02-13 07:02:00,17.7,15.8,29.79,South,190,0.0,0.0,92,0.00,CLR,,0.00,5.0,WeatherDisplay:10.37,2013-02-13 13:02:00,
2013-02-13 07:07:00,17.7,15.8,29.79,South,190,0.0,0.0,92,0.00,CLR,,0.00,7.0,WeatherDisplay:10.37,2013-02-13 13:07:00,
2013-02-13 07:12:00,17.8,15.9,29.79,South,190,0.0,0.0,92,0.00,SCT,,0.00,12.0,WeatherDisplay:10.37,2013-02-13 13:12:00,
2013-02-13 07:17:00,18.1,16.4,29.79,South,190,0.0,0.0,93,0.00,SCT,,0.00,23.0,WeatherDisplay:10.37,2013-02-13 13:17:00,
2013-02-13 07:22:00,18.3,16.4,29.79,South,190,0.0,0.0,92,0.00,SCT,,0.00,32.0,WeatherDisplay:10.37,2013-02-13 13:22:00,
2013-02-13 07:27:00,18.6,16.9,29.79,South,190,0.0,0.0,93,0.00,SCT,,0.00,33.0,WeatherDisplay:10.37,2013-02-13 13:27:00,
2013-02-13 07:32:00,19.2,17.5,29.77,South,190,0.0,0.0,93,0.00,SCT,,0.00,37.0,WeatherDisplay:10.37,2013-02-13 13:32:00,
2013-02-13 07:37:00,19.5,17.8,29.77,South,190,0.0,0.0,93,0.00,SCT,,0.00,42.0,WeatherDisplay:10.37,2013-02-13 13:37:00,
2013-02-13 07:42:00,20.0,18.3,29.77,South,190,0.0,0.0,93,0.00,SCT,,0.00,60.0,WeatherDisplay:10.37,2013-02-13 13:42:00,
2013-02-13 07:47:00,20.3,18.6,29.77,South,190,0.0,0.0,93,0.00,SCT,,0.00,69.0,WeatherDisplay:10.37,2013-02-13 13:47:00,
2013-02-13 07:52:00,20.5,18.8,29.77,South,190,0.0,0.0,93,0.00,SCT,,0.00,65.0,WeatherDisplay:10.37,2013-02-13 13:52:00,
2013-02-13 07:57:00,20.8,19.1,29.77,South,190,0.0,0.0,93,0.00,SCT,,0.00,84.0,WeatherDisplay:10.37,2013-02-13 13:57:00,
2013-02-13 08:02:00,20.8,19.1,29.78,South,190,0.0,0.0,93,0.00,CLR,,0.00,90.0,WeatherDisplay:10.37,2013-02-13 14:02:00,
2013-02-13 08:07:00,21.1,19.4,29.78,South,190,0.0,0.0,93,0.00,CLR,,0.00,93.0,WeatherDisplay:10.37,2013-02-13 14:07:00,
2013-02-13 08:12:00,21.3,19.6,29.78,South,190,0.0,0.0,93,0.00,CLR,,0.00,100.0,WeatherDisplay:10.37,2013-02-13 14:12:00,
2013-02-13 08:17:00,21.4,19.7,29.77,South,190,0.0,0.0,93,0.00,CLR,,0.00,104.0,WeatherDisplay:10.37,2013-02-13 14:17:00,
2013-02-13 08:22:00,22.1,20.6,29.77,South,190,0.0,0.0,94,0.00,CLR,,0.00,104.0,WeatherDisplay:10.37,2013-02-13 14:22:00,
2013-02-13 08:27:00,22.7,21.2,29.77,South,190,0.0,0.0,94,0.00,CLR,,0.00,116.0,WeatherDisplay:10.37,2013-02-13 14:27:00,
2013-02-13 08:32:00,23.2,21.7,29.77,South,190,0.0,0.0,94,0.00,CLR,,0.00,125.0,WeatherDisplay:10.37,2013-02-13 14:32:00,
2013-02-13 08:37:00,23.6,22.1,29.77,South,190,0.0,0.0,94,0.00,CLR,,0.00,132.0,WeatherDisplay:10.37,2013-02-13 14:37:00,
2013-02-13 08:42:00,24.1,22.4,29.77,South,190,0.2,1.2,93,0.00,CLR,,0.00,144.0,WeatherDisplay:10.37,2013-02-13 14:42:00,
2013-02-13 08:47:00,24.5,22.8,29.77,South,190,0.3,1.2,93,0.00,CLR,,0.00,163.0,WeatherDisplay:10.37,2013-02-13 14:47:00,
2013-02-13 08:52:00,24.8,23.1,29.77,South,190,0.0,0.0,93,0.00,CLR,,0.00,179.0,WeatherDisplay:10.37,2013-02-13 14:52:00,
2013-02-13 08:57:00,25.1,23.1,29.77,South,190,0.0,2.3,92,0.00,CLR,,0.00,192.0,WeatherDisplay:10.37,2013-02-13 14:57:00,
2013-02-13 09:02:00,25.4,23.1,29.77,South,190,0.7,3.6,91,0.00,CLR,,0.00,211.0,WeatherDisplay:10.37,2013-02-13 15:02:00,
2013-02-13 09:07:00,25.7,23.4,29.77,South,190,0.8,2.4,91,0.00,CLR,,0.00,227.0,WeatherDisplay:10.37,2013-02-13 15:07:00,
2013-02-13 09:12:00,26.0,23.2,29.77,South,190,0.0,3.5,89,0.00,CLR,,0.00,229.0,WeatherDisplay:10.37,2013-02-13 15:12:00,
2013-02-13 09:17:00,26.4,23.3,29.77,South,190,2.2,4.8,88,0.00,CLR,,0.00,223.0,WeatherDisplay:10.37,2013-02-13 15:17:00,
2013-02-13 09:22:00,26.4,23.1,29.77,South,190,0.3,3.5,87,0.00,CLR,,0.00,232.0,WeatherDisplay:10.37,2013-02-13 15:22:00,
2013-02-13 09:27:00,26.4,22.8,29.77,South,190,0.8,2.4,86,0.00,CLR,,0.00,241.0,WeatherDisplay:10.37,2013-02-13 15:27:00,
2013-02-13 09:32:00,26.6,22.7,29.76,South,190,2.5,4.6,85,0.00,CLR,,0.00,243.0,WeatherDisplay:10.37,2013-02-13 15:32:00,
2013-02-13 09:37:00,26.9,22.7,29.76,South,190,2.5,3.6,84,0.00,CLR,,0.00,237.0,WeatherDisplay:10.37,2013-02-13 15:37:00,
2013-02-13 09:42:00,27.2,22.7,29.76,South,190,2.7,4.8,83,0.00,CLR,,0.00,267.0,WeatherDisplay:10.37,2013-02-13 15:42:00,
2013-02-13 09:47:00,27.5,23.0,29.76,South,190,0.1,2.3,83,0.00,CLR,,0.00,272.0,WeatherDisplay:10.37,2013-02-13 15:47:00,
2013-02-13 09:52:00,27.8,23.3,29.76,South,190,1.6,2.4,83,0.00,CLR,,0.00,299.0,WeatherDisplay:10.37,2013-02-13 15:52:00,
2013-02-13 09:57:00,27.9,23.1,29.76,South,190,0.0,0.0,82,0.00,CLR,,0.00,311.0,WeatherDisplay:10.37,2013-02-13 15:57:00,
2013-02-13 10:02:00,28.1,23.0,29.76,South,190,1.6,2.4,81,0.00,CLR,,0.00,295.0,WeatherDisplay:10.37,2013-02-13 16:02:00,
2013-02-13 10:07:00,28.4,23.3,29.76,South,190,0.0,1.2,81,0.00,CLR,,0.00,234.0,WeatherDisplay:10.37,2013-02-13 16:07:00,
2013-02-13 10:12:00,28.7,23.6,29.76,South,190,0.0,0.0,81,0.00,CLR,,0.00,248.0,WeatherDisplay:10.37,2013-02-13 16:12:00,
2013-02-13 10:17:00,28.7,23.3,29.76,South,190,0.0,0.0,80,0.00,CLR,,0.00,323.0,WeatherDisplay:10.37,2013-02-13 16:17:00,
2013-02-13 10:22:00,29.0,23.0,29.76,South,190,1.3,3.6,78,0.00,CLR,,0.00,350.0,WeatherDisplay:10.37,2013-02-13 16:22:00,
2013-02-13 10:27:00,29.4,23.1,29.76,South,190,2.1,3.6,77,0.00,CLR,,0.00,413.0,WeatherDisplay:10.37,2013-02-13 16:27:00,
2013-02-13 10:32:00,29.8,23.5,29.75,South,190,0.0,0.0,77,0.00,CLR,,0.00,490.0,WeatherDisplay:10.37,2013-02-13 16:32:00,
2013-02-13 10:37:00,30.6,23.9,29.75,South,190,0.3,1.2,76,0.00,CLR,,0.00,557.0,WeatherDisplay:10.37,2013-02-13 16:37:00,
2013-02-13 10:42:00,31.0,23.7,29.75,South,190,0.9,2.4,74,0.00,CLR,,0.00,564.0,WeatherDisplay:10.37,2013-02-13 16:42:00,
2013-02-13 10:47:00,31.5,24.2,29.75,South,190,0.0,0.0,74,0.00,CLR,,0.00,668.0,WeatherDisplay:10.37,2013-02-13 16:47:00,
2013-02-13 10:52:00,32.1,24.1,29.75,South,190,0.0,1.2,72,0.00,CLR,,0.00,615.0,WeatherDisplay:10.37,2013-02-13 16:52:00,
2013-02-13 10:57:00,32.4,24.4,29.75,South,190,0.0,3.5,72,0.00,CLR,,0.00,599.0,WeatherDisplay:10.37,2013-02-13 16:57:00,
2013-02-13 11:02:00,32.4,24.0,29.75,WSW,253,0.0,0.0,71,0.00,CLR,,0.00,526.0,WeatherDisplay:10.37,2013-02-13 17:02:00,
2013-02-13 11:07:00,32.7,24.0,29.75,West,263,0.0,2.3,70,0.00,CLR,,0.00,431.0,WeatherDisplay:10.37,2013-02-13 17:07:00,
2013-02-13 11:12:00,32.5,23.8,29.75,West,264,0.7,3.6,70,0.00,CLR,,0.00,439.0,WeatherDisplay:10.37,2013-02-13 17:12:00,
2013-02-13 11:17:00,32.7,24.0,29.75,West,264,1.0,3.6,70,0.00,CLR,,0.00,413.0,WeatherDisplay:10.37,2013-02-13 17:17:00,
2013-02-13 11:22:00,33.1,24.4,29.75,West,264,0.0,0.0,70,0.00,CLR,,0.00,410.0,WeatherDisplay:10.37,2013-02-13 17:22:00,
2013-02-13 11:27:00,33.5,24.4,29.75,WSW,258,1.7,4.8,69,0.00,CLR,,0.00,383.0,WeatherDisplay:10.37,2013-02-13 17:27:00,
2013-02-13 11:32:00,33.5,24.8,29.75,WSW,250,0.7,3.6,70,0.00,CLR,,0.00,327.0,WeatherDisplay:10.37,2013-02-13 17:32:00,
2013-02-13 11:37:00,33.5,24.4,29.75,SW,223,1.3,5.8,69,0.00,CLR,,0.00,309.0,WeatherDisplay:10.37,2013-02-13 17:37:00,
2013-02-13 11:42:00,33.7,24.6,29.75,West,277,1.0,2.4,69,0.00,CLR,,0.00,329.0,WeatherDisplay:10.37,2013-02-13 17:42:00,
2013-02-13 11:47:00,33.7,24.6,29.75,West,275,1.2,3.5,69,0.00,CLR,,0.00,327.0,WeatherDisplay:10.37,2013-02-13 17:47:00,
2013-02-13 11:52:00,34.0,24.9,29.75,West,274,2.4,3.6,69,0.00,CLR,,0.00,334.0,WeatherDisplay:10.37,2013-02-13 17:52:00,
2013-02-13 11:57:00,34.3,25.2,29.75,WSW,242,0.0,2.3,69,0.00,CLR,,0.00,385.0,WeatherDisplay:10.37,2013-02-13 17:57:00,
2013-02-13 12:02:00,34.6,25.5,29.75,WSW,242,2.5,3.6,69,0.00,CLR,,0.00,387.0,WeatherDisplay:10.37,2013-02-13 18:02:00,
2013-02-13 12:07:00,34.7,25.2,29.75,WSW,246,0.0,1.2,68,0.00,CLR,,0.00,413.0,WeatherDisplay:10.37,2013-02-13 18:07:00,
2013-02-13 12:12:00,34.9,25.4,29.75,SW,216,3.2,4.8,68,0.00,CLR,,0.00,417.0,WeatherDisplay:10.37,2013-02-13 18:12:00,
2013-02-13 12:17:00,35.2,25.7,29.74,WNW,290,0.0,0.0,68,0.00,CLR,,0.00,425.0,WeatherDisplay:10.37,2013-02-13 18:17:00,
2013-02-13 12:22:00,35.0,25.1,29.74,SW,219,4.7,4.8,67,0.00,CLR,,0.00,443.0,WeatherDisplay:10.37,2013-02-13 18:22:00,
2013-02-13 12:27:00,35.3,25.4,29.74,SW,221,1.3,3.6,67,0.00,CLR,,0.00,640.0,WeatherDisplay:10.37,2013-02-13 18:27:00,
2013-02-13 12:32:00,35.8,25.5,29.74,West,267,1.1,3.5,66,0.00,CLR,,0.00,612.0,WeatherDisplay:10.37,2013-02-13 18:32:00,
2013-02-13 12:37:00,36.2,25.9,29.74,SW,221,4.8,4.8,66,0.00,CLR,,0.00,606.0,WeatherDisplay:10.37,2013-02-13 18:37:00,
2013-02-13 12:42:00,36.3,25.7,29.74,WNW,284,1.7,3.6,65,0.00,CLR,,0.00,598.0,WeatherDisplay:10.37,2013-02-13 18:42:00,
2013-02-13 12:47:00,36.5,25.8,29.74,SW,223,0.7,2.4,65,0.00,CLR,,0.00,591.0,WeatherDisplay:10.37,2013-02-13 18:47:00,
2013-02-13 12:52:00,36.9,26.2,29.74,WSW,246,0.0,0.0,65,0.00,CLR,,0.00,587.0,WeatherDisplay:10.37,2013-02-13 18:52:00,
2013-02-13 12:57:00,36.9,26.2,29.74,WNW,286,2.0,3.6,65,0.00,CLR,,0.00,584.0,WeatherDisplay:10.37,2013-02-13 18:57:00,
2013-02-13 13:02:00,36.8,26.1,29.74,WNW,291,0.0,0.0,65,0.00,CLR,,0.00,580.0,WeatherDisplay:10.37,2013-02-13 19:02:00,
2013-02-13 13:07:00,37.3,26.2,29.74,NW,313,2.2,3.6,64,0.00,CLR,,0.00,575.0,WeatherDisplay:10.37,2013-02-13 19:07:00,
2013-02-13 13:12:00,37.0,26.3,29.74,NW,307,0.1,1.2,65,0.00,CLR,,0.00,570.0,WeatherDisplay:10.37,2013-02-13 19:12:00,
2013-02-13 13:17:00,37.3,26.2,29.74,NW,306,0.0,0.0,64,0.00,CLR,,0.00,563.0,WeatherDisplay:10.37,2013-02-13 19:17:00,
2013-02-13 13:22:00,37.8,26.3,29.74,NW,304,0.0,0.0,63,0.00,CLR,,0.00,557.0,WeatherDisplay:10.37,2013-02-13 19:22:00,
2013-02-13 13:27:00,38.2,26.7,29.74,West,259,0.2,1.2,63,0.00,CLR,,0.00,552.0,WeatherDisplay:10.37,2013-02-13 19:27:00,
2013-02-13 13:32:00,38.3,26.8,29.74,West,264,1.3,3.6,63,0.00,CLR,,0.00,545.0,WeatherDisplay:10.37,2013-02-13 19:32:00,
2013-02-13 13:37:00,38.6,26.3,29.74,West,264,0.0,1.2,61,0.00,CLR,,0.00,543.0,WeatherDisplay:10.37,2013-02-13 19:37:00,
2013-02-13 13:42:00,39.1,26.8,29.74,SW,235,4.3,4.8,61,0.00,CLR,,0.00,548.0,WeatherDisplay:10.37,2013-02-13 19:42:00,
2013-02-13 13:47:00,39.2,26.5,29.74,SW,235,2.7,3.6,60,0.00,CLR,,0.00,566.0,WeatherDisplay:10.37,2013-02-13 19:47:00,
2013-02-13 13:52:00,39.5,26.8,29.74,SW,234,0.6,2.4,60,0.00,CLR,,0.00,299.0,WeatherDisplay:10.37,2013-02-13 19:52:00,
2013-02-13 13:57:00,39.1,26.4,29.74,SW,225,3.0,4.8,60,0.00,CLR,,0.00,343.0,WeatherDisplay:10.37,2013-02-13 19:57:00,
2013-02-13 14:02:00,39.1,26.8,29.74,West,260,1.1,2.4,61,0.00,CLR,,0.00,306.0,WeatherDisplay:10.37,2013-02-13 20:02:00,
2013-02-13 14:07:00,39.1,26.4,29.74,WSW,244,2.4,6.0,60,0.00,CLR,,0.00,288.0,WeatherDisplay:10.37,2013-02-13 20:07:00,
2013-02-13 14:12:00,39.1,27.2,29.74,WNW,292,0.2,4.6,62,0.00,CLR,,0.00,274.0,WeatherDisplay:10.37,2013-02-13 20:12:00,
2013-02-13 14:17:00,39.1,26.8,29.74,WSW,242,5.2,7.2,61,0.00,CLR,,0.00,265.0,WeatherDisplay:10.37,2013-02-13 20:17:00,
2013-02-13 14:22:00,38.9,26.6,29.74,WSW,245,0.9,4.6,61,0.00,CLR,,0.00,255.0,WeatherDisplay:10.37,2013-02-13 20:22:00,
2013-02-13 14:27:00,39.1,27.2,29.74,SW,226,1.3,3.6,62,0.00,CLR,,0.00,264.0,WeatherDisplay:10.37,2013-02-13 20:27:00,
2013-02-13 14:32:00,38.9,26.6,29.73,SW,224,4.6,6.0,61,0.00,CLR,,0.00,260.0,WeatherDisplay:10.37,2013-02-13 20:32:00,
2013-02-13 14:37:00,39.1,26.4,29.73,WSW,243,4.8,7.2,60,0.00,CLR,,0.00,262.0,WeatherDisplay:10.37,2013-02-13 20:37:00,
2013-02-13 14:42:00,39.2,26.1,29.73,WSW,258,4.8,6.9,59,0.00,CLR,,0.00,272.0,WeatherDisplay:10.37,2013-02-13 20:42:00,
2013-02-13 14:47:00,39.3,26.2,29.73,WSW,244,5.3,7.2,59,0.00,CLR,,0.00,279.0,WeatherDisplay:10.37,2013-02-13 20:47:00,
2013-02-13 14:52:00,39.5,26.3,29.73,WNW,286,6.6,7.2,59,0.00,CLR,,0.00,271.0,WeatherDisplay:10.37,2013-02-13 20:52:00,
2013-02-13 14:57:00,39.5,26.3,29.73,WSW,245,3.9,6.0,59,0.00,CLR,,0.00,230.0,WeatherDisplay:10.37,2013-02-13 20:57:00,
2013-02-13 15:02:00,39.6,26.8,29.74,WSW,257,2.5,4.8,60,0.00,CLR,,0.00,229.0,WeatherDisplay:10.37,2013-02-13 21:02:00,
2013-02-13 15:07:00,39.6,26.8,29.74,SSW,208,3.4,7.2,60,0.00,CLR,,0.00,220.0,WeatherDisplay:10.37,2013-02-13 21:07:00,
2013-02-13 15:12:00,39.5,26.8,29.74,WSW,245,4.3,7.2,60,0.00,CLR,,0.00,206.0,WeatherDisplay:10.37,2013-02-13 21:12:00,
2013-02-13 15:17:00,39.5,26.8,29.74,WSW,247,2.9,5.8,60,0.00,CLR,,0.00,206.0,WeatherDisplay:10.37,2013-02-13 21:17:00,
2013-02-13 15:22:00,39.3,26.6,29.74,WSW,250,1.1,5.8,60,0.00,CLR,,0.00,186.0,WeatherDisplay:10.37,2013-02-13 21:22:00,
2013-02-13 15:27:00,39.5,27.2,29.74,WSW,250,0.5,2.4,61,0.00,CLR,,0.00,171.0,WeatherDisplay:10.37,2013-02-13 21:27:00,
2013-02-13 15:32:00,39.5,27.2,29.73,WSW,250,1.6,3.6,61,0.00,CLR,,0.00,163.0,WeatherDisplay:10.37,2013-02-13 21:32:00,
2013-02-13 15:37:00,39.3,26.6,29.73,West,266,2.4,3.6,60,0.00,CLR,,0.00,162.0,WeatherDisplay:10.37,2013-02-13 21:37:00,
2013-02-13 15:42:00,39.3,27.0,29.73,SW,231,1.6,4.8,61,0.00,CLR,,0.00,156.0,WeatherDisplay:10.37,2013-02-13 21:42:00,
2013-02-13 15:47:00,39.2,26.5,29.73,WSW,248,2.4,6.0,60,0.00,CLR,,0.00,132.0,WeatherDisplay:10.37,2013-02-13 21:47:00,
2013-02-13 15:52:00,39.2,26.5,29.73,WSW,257,2.7,4.8,60,0.00,CLR,,0.00,116.0,WeatherDisplay:10.37,2013-02-13 21:52:00,
2013-02-13 15:57:00,39.2,26.5,29.73,WSW,242,4.9,4.9,60,0.00,CLR,,0.00,105.0,WeatherDisplay:10.37,2013-02-13 21:57:00,
2013-02-13 16:02:00,39.1,26.8,29.73,WSW,251,3.7,4.8,61,0.00,CLR,,0.00,98.0,WeatherDisplay:10.37,2013-02-13 22:02:00,
2013-02-13 16:07:00,38.9,26.6,29.73,WSW,239,3.4,4.8,61,0.00,CLR,,0.00,86.0,WeatherDisplay:10.37,2013-02-13 22:07:00,
2013-02-13 16:12:00,38.8,26.9,29.73,WSW,244,4.1,5.8,62,0.00,CLR,,0.00,74.0,WeatherDisplay:10.37,2013-02-13 22:12:00,
2013-02-13 16:17:00,38.6,26.7,29.73,WSW,247,3.0,4.6,62,0.00,CLR,,0.00,69.0,WeatherDisplay:10.37,2013-02-13 22:17:00,
2013-02-13 16:22:00,38.5,26.6,29.73,WSW,251,3.8,4.8,62,0.00,CLR,,0.00,58.0,WeatherDisplay:10.37,2013-02-13 22:22:00,
2013-02-13 16:27:00,38.3,26.8,29.73,West,261,1.9,3.6,63,0.00,CLR,,0.00,54.0,WeatherDisplay:10.37,2013-02-13 22:27:00,
2013-02-13 16:32:00,38.3,26.8,29.73,WSW,251,2.2,4.8,63,0.00,CLR,,0.00,46.0,WeatherDisplay:10.37,2013-02-13 22:32:00,
2013-02-13 16:37:00,38.2,26.7,29.73,WSW,254,3.4,4.8,63,0.00,CLR,,0.00,37.0,WeatherDisplay:10.37,2013-02-13 22:37:00,
2013-02-13 16:42:00,38.2,26.7,29.73,WNW,284,2.8,6.0,63,0.00,SCT,,0.00,30.0,WeatherDisplay:10.37,2013-02-13 22:42:00,
2013-02-13 16:47:00,38.0,26.5,29.73,WSW,248,1.8,2.4,63,0.00,SCT,,0.00,21.0,WeatherDisplay:10.37,2013-02-13 22:47:00,
2013-02-13 16:52:00,37.9,26.4,29.73,WSW,246,1.6,4.8,63,0.00,SCT,,0.00,19.0,WeatherDisplay:10.37,2013-02-13 22:52:00,
2013-02-13 16:57:00,37.8,26.3,29.73,WSW,245,1.5,4.8,63,0.00,SCT,,0.00,18.0,WeatherDisplay:10.37,2013-02-13 22:57:00,
2013-02-13 17:02:00,37.8,26.7,29.73,SW,217,2.9,3.6,64,0.00,SCT,,0.00,16.0,WeatherDisplay:10.37,2013-02-13 23:02:00,
2013-02-13 17:07:00,37.6,26.9,29.73,SW,214,4.1,4.8,65,0.00,SCT,,0.00,16.0,WeatherDisplay:10.37,2013-02-13 23:07:00,
2013-02-13 17:12:00,37.6,26.5,29.73,SSW,200,3.1,5.8,64,0.00,SCT,,0.00,11.0,WeatherDisplay:10.37,2013-02-13 23:12:00,
2013-02-13 17:17:00,37.6,26.5,29.73,SSW,200,0.0,2.3,64,0.00,SCT,,0.00,7.0,WeatherDisplay:10.37,2013-02-13 23:17:00,
2013-02-13 17:22:00,37.5,26.4,29.73,WSW,240,2.8,3.6,64,0.00,SCT,,0.00,5.0,WeatherDisplay:10.37,2013-02-13 23:22:00,
2013-02-13 17:27:00,37.5,26.4,29.73,WSW,240,1.2,3.6,64,0.00,SCT,,0.00,0.0,WeatherDisplay:10.37,2013-02-13 23:27:00,
2013-02-13 17:32:00,37.3,26.6,29.73,WSW,240,1.9,3.6,65,0.00,SCT,,0.00,0.0,WeatherDisplay:10.37,2013-02-13 23:32:00,
2013-02-13 17:37:00,37.2,26.1,29.73,South,188,4.1,8.1,64,0.00,SCT,,0.00,0.0,WeatherDisplay:10.37,2013-02-13 23:37:00,
2013-02-13 17:42:00,37.2,26.5,29.73,South,188,4.8,6.0,65,0.00,CLR,,0.00,0.0,WeatherDisplay:10.37,2013-02-13 23:42:00,
2013-02-13 17:47:00,37.0,26.3,29.73,South,188,4.3,4.8,65,0.00,CLR,,0.00,0.0,WeatherDisplay:10.37,2013-02-13 23:47:00,
2013-02-13 17:52:00,37.0,26.3,29.73,SSW,201,6.5,7.2,65,0.00,CLR,,0.00,0.0,WeatherDisplay:10.37,2013-02-13 23:52:00,
2013-02-13 17:57:00,36.9,26.6,29.73,SSW,201,0.8,2.4,66,0.00,CLR,,0.00,0.0,WeatherDisplay:10.37,2013-02-13 23:57:00,
2013-02-13 18:03:00,36.8,26.5,29.73,SW,221,4.6,6.0,66,0.00,CLR,,0.00,0.0,WeatherDisplay:10.37,2013-02-14 00:03:00,
2013-02-13 18:08:00,36.8,26.5,29.73,SSW,207,4.1,6.0,66,0.00,CLR,,0.00,0.0,WeatherDisplay:10.37,2013-02-14 00:08:00,
2013-02-13 18:13:00,36.6,26.7,29.73,SSW,207,3.4,3.6,67,0.00,CLR,,0.00,0.0,WeatherDisplay:10.37,2013-02-14 00:13:00,
2013-02-13 18:18:00,36.5,26.6,29.73,SSE,167,0.0,0.0,67,0.00,CLR,,0.00,0.0,WeatherDisplay:10.37,2013-02-14 00:18:00,
2013-02-13 18:23:00,36.5,26.9,29.73,SSE,165,0.9,2.4,68,0.00,CLR,,0.00,0.0,WeatherDisplay:10.37,2013-02-14 00:23:00,
2013-02-13 18:28:00,36.3,27.1,29.73,SSW,202,2.0,4.8,69,0.00,CLR,,0.00,0.0,WeatherDisplay:10.37,2013-02-14 00:28:00,
2013-02-13 18:33:00,36.2,27.0,29.73,SSW,193,1.4,3.6,69,0.00,CLR,,0.00,0.0,WeatherDisplay:10.37,2013-02-14 00:33:00,
2013-02-13 18:38:00,36.0,27.2,29.73,South,191,2.1,4.6,70,0.00,CLR,,0.00,0.0,WeatherDisplay:10.37,2013-02-14 00:38:00,
2013-02-13 18:43:00,35.9,27.1,29.73,South,188,2.7,6.0,70,0.00,CLR,,0.00,0.0,WeatherDisplay:10.37,2013-02-14 00:43:00,
2013-02-13 18:48:00,35.8,27.0,29.73,South,180,4.5,4.8,70,0.00,CLR,,0.00,0.0,WeatherDisplay:10.37,2013-02-14 00:48:00,
2013-02-13 18:53:00,35.8,27.0,29.73,South,190,3.7,7.2,70,0.00,CLR,,0.00,0.0,WeatherDisplay:10.37,2013-02-14 00:53:00,
2013-02-13 18:58:00,35.6,27.1,29.73,South,177,0.3,2.4,71,0.00,CLR,,0.00,0.0,WeatherDisplay:10.37,2013-02-14 00:58:00,
2013-02-13 19:03:00,35.6,27.1,29.72,South,176,3.8,6.0,71,0.00,SCT,,0.00,0.0,WeatherDisplay:10.37,2013-02-14 01:03:00,
2013-02-13 19:08:00,35.5,27.4,29.72,South,188,1.0,5.8,72,0.00,SCT,,0.00,0.0,WeatherDisplay:10.37,2013-02-14 01:08:00,
2013-02-13 19:13:00,35.5,27.4,29.72,South,175,4.0,6.0,72,0.00,SCT,,0.00,0.0,WeatherDisplay:10.37,2013-02-14 01:13:00,
2013-02-13 19:18:00,35.3,27.2,29.72,South,180,4.6,4.8,72,0.00,SCT,,0.00,0.0,WeatherDisplay:10.37,2013-02-14 01:18:00,
2013-02-13 19:23:00,35.2,27.4,29.72,South,186,4.6,5.8,73,0.00,SCT,,0.00,0.0,WeatherDisplay:10.37,2013-02-14 01:23:00,
2013-02-13 19:28:00,35.2,27.4,29.72,SW,214,8.4,10.8,73,0.00,SCT,,0.00,0.0,WeatherDisplay:10.37,2013-02-14 01:28:00,
2013-02-13 19:33:00,35.3,27.2,29.72,South,186,5.4,6.0,72,0.00,SCT,,0.00,0.0,WeatherDisplay:10.37,2013-02-14 01:33:00,
2013-02-13 19:38:00,35.3,27.2,29.72,SSW,192,7.3,9.2,72,0.00,SCT,,0.00,0.0,WeatherDisplay:10.37,2013-02-14 01:38:00,
2013-02-13 19:43:00,35.3,27.2,29.72,SSW,202,5.7,6.0,72,0.00,CLR,,0.00,0.0,WeatherDisplay:10.37,2013-02-14 01:43:00,
2013-02-13 19:48:00,35.3,27.5,29.72,SSW,202,4.3,6.0,73,0.00,CLR,,0.00,0.0,WeatherDisplay:10.37,2013-02-14 01:48:00,
2013-02-13 19:53:00,35.3,27.5,29.72,SSW,199,1.8,4.8,73,0.00,CLR,,0.00,0.0,WeatherDisplay:10.37,2013-02-14 01:53:00,
2013-02-13 19:58:00,35.2,27.4,29.72,SSW,200,4.7,6.0,73,0.00,CLR,,0.00,0.0,WeatherDisplay:10.37,2013-02-14 01:58:00,
2013-02-13 20:03:00,35.2,27.4,29.72,SSW,206,3.9,6.0,73,0.00,SCT,,0.00,0.0,WeatherDisplay:10.37,2013-02-14 02:03:00,
2013-02-13 20:08:00,35.2,27.4,29.72,SSW,206,1.6,3.6,73,0.00,SCT,,0.00,0.0,WeatherDisplay:10.37,2013-02-14 02:08:00,
2013-02-13 20:13:00,35.2,27.4,29.72,WSW,251,0.1,2.4,73,0.00,SCT,,0.00,0.0,WeatherDisplay:10.37,2013-02-14 02:13:00,
2013-02-13 20:18:00,35.2,27.7,29.72,SSW,207,2.7,4.8,74,0.00,SCT,,0.00,0.0,WeatherDisplay:10.37,2013-02-14 02:18:00,
2013-02-13 20:23:00,35.2,27.7,29.72,SSW,211,2.1,5.8,74,0.00,CLR,,0.00,0.0,WeatherDisplay:10.37,2013-02-14 02:23:00,
2013-02-13 20:28:00,35.2,27.7,29.72,South,189,4.0,6.0,74,0.00,CLR,,0.00,0.0,WeatherDisplay:10.37,2013-02-14 02:28:00,
2013-02-13 20:33:00,35.0,27.5,29.71,SSW,192,5.8,7.2,74,0.00,CLR,,0.00,0.0,WeatherDisplay:10.37,2013-02-14 02:33:00,
2013-02-13 20:38:00,35.0,27.5,29.71,SSW,198,6.2,8.4,74,0.00,CLR,,0.00,0.0,WeatherDisplay:10.37,2013-02-14 02:38:00,
2013-02-13 20:43:00,35.0,27.5,29.71,SSE,159,5.4,7.2,74,0.00,CLR,,0.00,0.0,WeatherDisplay:10.37,2013-02-14 02:43:00,
2013-02-13 20:48:00,34.9,27.5,29.71,South,184,0.4,3.5,74,0.00,CLR,,0.00,0.0,WeatherDisplay:10.37,2013-02-14 02:48:00,
2013-02-13 20:53:00,34.9,27.5,29.71,South,184,0.0,0.0,74,0.00,CLR,,0.00,0.0,WeatherDisplay:10.37,2013-02-14 02:53:00,
2013-02-13 20:58:00,34.9,27.8,29.71,South,184,0.7,3.6,75,0.00,CLR,,0.00,0.0,WeatherDisplay:10.37,2013-02-14 02:58:00,
2013-02-13 21:03:00,34.7,27.6,29.70,South,185,3.9,4.8,75,0.00,CLR,,0.00,0.0,WeatherDisplay:10.37,2013-02-14 03:03:00,
2013-02-13 21:08:00,34.7,27.6,29.70,South,186,0.0,0.0,75,0.00,CLR,,0.00,0.0,WeatherDisplay:10.37,2013-02-14 03:08:00,
2013-02-13 21:13:00,34.6,27.5,29.70,SSW,202,4.2,8.4,75,0.00,CLR,,0.00,0.0,WeatherDisplay:10.37,2013-02-14 03:13:00,
2013-02-13 21:18:00,34.6,27.5,29.70,SSW,205,5.4,6.0,75,0.00,CLR,,0.00,0.0,WeatherDisplay:10.37,2013-02-14 03:18:00,
2013-02-13 21:23:00,34.4,27.6,29.70,SSW,194,1.6,4.8,76,0.00,CLR,,0.00,0.0,WeatherDisplay:10.37,2013-02-14 03:23:00,
2013-02-13 21:28:00,34.4,27.6,29.70,SSW,203,3.2,7.2,76,0.00,CLR,,0.00,0.0,WeatherDisplay:10.37,2013-02-14 03:28:00,
2013-02-13 21:33:00,34.4,27.6,29.69,SSW,195,0.2,3.5,76,0.00,CLR,,0.00,0.0,WeatherDisplay:10.37,2013-02-14 03:33:00,
2013-02-13 21:38:00,34.4,27.6,29.69,SSW,193,0.0,0.0,76,0.00,CLR,,0.00,0.0,WeatherDisplay:10.37,2013-02-14 03:38:00,
2013-02-13 21:43:00,34.4,27.6,29.69,South,173,0.8,2.4,76,0.00,SCT,,0.00,0.0,WeatherDisplay:10.37,2013-02-14 03:43:00,
2013-02-13 21:48:00,34.4,27.6,29.69,South,175,0.0,1.2,76,0.00,SCT,,0.00,0.0,WeatherDisplay:10.37,2013-02-14 03:48:00,
2013-02-13 21:53:00,34.4,27.9,29.69,South,175,0.3,2.4,77,0.00,SCT,,0.00,0.0,WeatherDisplay:10.37,2013-02-14 03:53:00,
2013-02-13 21:58:00,34.4,27.9,29.69,South,178,0.8,4.8,77,0.00,SCT,,0.00,0.0,WeatherDisplay:10.37,2013-02-14 03:58:00,
2013-02-13 22:03:00,34.6,28.1,29.68,South,174,3.4,6.0,77,0.00,-SN,,0.00,0.0,WeatherDisplay:10.37,2013-02-14 04:03:00,
2013-02-13 22:08:00,34.6,28.1,29.68,South,181,0.8,3.6,77,0.00,-SN,,0.00,0.0,WeatherDisplay:10.37,2013-02-14 04:08:00,
2013-02-13 22:13:00,34.6,28.1,29.68,South,178,3.5,7.2,77,0.00,-SN,,0.00,0.0,WeatherDisplay:10.37,2013-02-14 04:13:00,
2013-02-13 22:18:00,34.6,28.1,29.68,South,174,3.3,4.8,77,0.00,-SN,,0.00,0.0,WeatherDisplay:10.37,2013-02-14 04:18:00,
2013-02-13 22:23:00,34.4,27.9,29.68,South,174,1.3,6.0,77,0.00,-SN,,0.00,0.0,WeatherDisplay:10.37,2013-02-14 04:23:00,
2013-02-13 22:28:00,34.4,27.9,29.68,South,169,1.2,4.8,77,0.00,-SN,,0.00,0.0,WeatherDisplay:10.37,2013-02-14 04:28:00,
2013-02-13 22:33:00,34.4,27.9,29.67,South,169,3.4,4.8,77,0.00,-SN,,0.00,0.0,WeatherDisplay:10.37,2013-02-14 04:33:00,
2013-02-13 22:38:00,34.4,27.9,29.67,South,181,0.0,1.2,77,0.00,-SN,,0.00,0.0,WeatherDisplay:10.37,2013-02-14 04:38:00,
2013-02-13 22:43:00,34.3,28.2,29.67,South,181,0.0,0.0,78,0.00,-SN,,0.00,0.0,WeatherDisplay:10.37,2013-02-14 04:43:00,
2013-02-13 22:48:00,34.3,28.2,29.67,South,175,2.2,4.8,78,0.00,-SN,,0.00,0.0,WeatherDisplay:10.37,2013-02-14 04:48:00,
2013-02-13 22:53:00,34.3,28.5,29.67,South,185,3.5,4.8,79,0.00,-SN,,0.00,0.0,WeatherDisplay:10.37,2013-02-14 04:53:00,
2013-02-13 22:58:00,34.3,28.8,29.67,South,181,0.1,4.6,80,0.00,-SN,,0.00,0.0,WeatherDisplay:10.37,2013-02-14 04:58:00,
2013-02-13 23:00:00,34.3,28.8,29.66,South,184,4.8,8.4,80,0.00,-SN,,0.00,0.0,WeatherDisplay:10.37,2013-02-14 05:00:00,
2013-02-13 23:05:00,34.3,29.1,29.66,South,178,0.6,2.4,81,0.00,-SN,,0.00,0.0,WeatherDisplay:10.37,2013-02-14 05:05:00,
2013-02-13 23:10:00,34.3,29.4,29.66,South,174,4.1,4.8,82,0.00,-SN,,0.00,0.0,WeatherDisplay:10.37,2013-02-14 05:10:00,
2013-02-13 23:15:00,34.1,29.5,29.65,South,175,1.4,4.8,83,0.00,-SN,,0.00,0.0,WeatherDisplay:10.37,2013-02-14 05:15:00,
2013-02-13 23:20:00,34.0,29.7,29.65,SSW,192,3.2,6.0,84,0.00,-SN,,0.00,0.0,WeatherDisplay:10.37,2013-02-14 05:20:00,
2013-02-13 23:25:00,34.0,30.0,29.65,South,175,3.4,8.1,85,0.00,-SN,,0.00,0.0,WeatherDisplay:10.37,2013-02-14 05:25:00,
2013-02-13 23:30:00,33.8,30.1,29.65,South,176,0.0,0.0,86,0.00,-SN,,0.00,0.0,WeatherDisplay:10.37,2013-02-14 05:30:00,
2013-02-13 23:35:00,33.7,30.2,29.65,South,174,0.0,0.0,87,0.00,-SN,,0.00,0.0,WeatherDisplay:10.37,2013-02-14 05:35:00,
2013-02-13 23:40:00,33.5,30.3,29.65,South,174,0.0,0.0,88,0.00,-SN,,0.00,0.0,WeatherDisplay:10.37,2013-02-14 05:40:00,
2013-02-13 23:45:00,33.4,30.5,29.65,South,171,0.5,4.6,89,0.00,-SN,,0.00,0.0,WeatherDisplay:10.37,2013-02-14 05:45:00,
2013-02-13 23:50:00,33.2,30.6,29.65,South,178,0.1,1.2,90,0.00,-SN,,0.00,0.0,WeatherDisplay:10.37,2013-02-14 05:50:00,
2013-02-13 23:55:00,33.2,30.9,29.65,South,177,2.3,4.8,91,0.00,-SN,,0.00,0.0,WeatherDisplay:10.37,2013-02-14 05:55:00,